Location: *
(45.5667°S, 177.5167°W)
Time: 22:55:26
(UTC+00:00)

Cosmos 2333 Rocket - Pass Details

Date: 29 May 2022
Orbit: 839 x 863 km, 70.8° (Epoch: 24 June)

Event Time Altitude Azimuth Distance (km) Brightness Sun altitude
Rises 07:38:04 0° 205° (SSW) 3,455 5.7 -34.4°
Reaches altitude 10° 07:40:35 10° 202° (SSW) 2,509 4.9 -34.9°
Enters shadow 07:42:00 18° 199° (SSW) 1,986 4.3 -35.1°
